Time,TemperatureF,DewpointF,PressureIn,WindDirection,WindDirectionDegrees,WindSpeedMPH,WindSpeedGustMPH,Humidity,HourlyPrecipIn,Conditions,Clouds,dailyrainin,SoftwareType,DateUTC
2013-02-10 14:46:00,56.7,45.9,29.96,SW,225,4.0,14.0,67,0.00,,,0.00,VWS V14.01,2013-02-10 19:46:00,
2013-02-10 14:49:00,53.6,45.5,29.96,SSW,193,5.0,10.0,74,0.04,,,0.00,VWS V14.01,2013-02-10 19:49:00,
2013-02-10 14:50:00,53.7,45.3,29.96,SSW,192,7.0,12.0,73,0.04,,,0.00,VWS V14.01,2013-02-10 19:50:00,
2013-02-10 14:51:00,53.7,45.3,29.96,South,175,3.0,4.0,73,0.04,,,0.00,VWS V14.01,2013-02-10 19:51:00,
2013-02-10 14:56:00,53.5,45.8,29.95,SSW,199,4.0,5.0,75,0.04,,,0.00,VWS V14.01,2013-02-10 19:56:00,
2013-02-10 15:01:00,52.9,46.2,29.95,SSW,209,6.0,6.0,78,0.04,,,0.00,VWS V14.01,2013-02-10 20:01:00,
2013-02-10 15:06:00,52.2,46.5,29.95,SSW,196,4.0,10.0,81,0.04,,,0.00,VWS V14.01,2013-02-10 20:06:00,
2013-02-10 15:11:00,51.6,46.9,29.95,South,188,3.0,3.0,84,0.04,,,0.00,VWS V14.01,2013-02-10 20:11:00,
2013-02-10 15:16:00,51.1,47.1,29.94,South,186,3.0,4.0,86,0.04,,,0.00,VWS V14.01,2013-02-10 20:16:00,
2013-02-10 15:21:00,50.7,47.3,29.93,South,190,0.0,3.0,88,0.04,,,0.00,VWS V14.01,2013-02-10 20:21:00,
2013-02-10 15:26:00,50.5,47.4,29.93,SSE,160,1.0,2.0,89,0.04,,,0.00,VWS V14.01,2013-02-10 20:26:00,
2013-02-10 15:32:00,50.3,47.5,29.92,South,190,3.0,5.0,90,0.04,,,0.00,VWS V14.01,2013-02-10 20:32:00,
2013-02-10 15:37:00,50.2,47.4,29.92,SSW,200,7.0,7.0,90,0.04,,,0.00,VWS V14.01,2013-02-10 20:37:00,
2013-02-10 15:42:00,50.1,47.6,29.92,SSE,149,2.0,2.0,91,0.00,,,0.00,VWS V14.01,2013-02-10 20:42:00,
2013-02-10 15:47:00,50.0,47.8,29.91,SSE,152,3.0,5.0,92,0.00,,,0.00,VWS V14.01,2013-02-10 20:47:00,
2013-02-10 15:52:00,49.9,47.7,29.89,SSE,168,2.0,6.0,92,0.00,,,0.00,VWS V14.01,2013-02-10 20:52:00,
2013-02-10 15:57:00,49.8,47.6,29.88,South,175,5.0,7.0,92,0.00,,,0.00,VWS V14.01,2013-02-10 20:57:00,
2013-02-10 16:02:00,49.7,47.8,29.88,SSE,155,2.0,7.0,93,0.00,,,0.00,VWS V14.01,2013-02-10 21:02:00,
2013-02-10 16:07:00,49.8,47.9,29.87,SE,136,4.0,4.0,93,0.00,,,0.00,VWS V14.01,2013-02-10 21:07:00,
2013-02-10 16:12:00,49.7,47.8,29.85,ESE,107,1.0,4.0,93,0.00,,,0.00,VWS V14.01,2013-02-10 21:12:00,
2013-02-10 16:17:00,49.6,47.7,29.83,SSE,164,1.0,5.0,93,0.00,,,0.00,VWS V14.01,2013-02-10 21:17:00,
2013-02-10 16:22:00,49.2,47.3,29.82,SSE,163,9.0,14.0,93,0.00,,,0.00,VWS V14.01,2013-02-10 21:22:00,
2013-02-10 16:27:00,49.0,46.8,29.83,South,187,5.0,11.0,92,0.01,,,0.01,VWS V14.01,2013-02-10 21:27:00,
2013-02-10 16:32:00,48.8,46.6,29.82,SSE,163,5.0,10.0,92,0.01,,,0.01,VWS V14.01,2013-02-10 21:32:00,
2013-02-10 16:37:00,48.7,46.8,29.82,South,191,7.0,12.0,93,0.01,,,0.01,VWS V14.01,2013-02-10 21:37:00,
2013-02-10 16:42:00,48.6,46.7,29.81,SSE,150,6.0,7.0,93,0.01,,,0.01,VWS V14.01,2013-02-10 21:42:00,
2013-02-10 16:47:00,48.6,46.7,29.81,South,178,6.0,11.0,93,0.01,,,0.01,VWS V14.01,2013-02-10 21:47:00,
2013-02-10 16:52:00,48.6,46.7,29.79,SSW,205,8.0,13.0,93,0.01,,,0.01,VWS V14.01,2013-02-10 21:52:00,
2013-02-10 16:57:00,48.5,46.6,29.80,SSW,195,12.0,12.0,93,0.01,,,0.01,VWS V14.01,2013-02-10 21:57:00,
2013-02-10 17:02:00,48.3,46.4,29.79,SE,140,10.0,19.0,93,0.01,,,0.01,VWS V14.01,2013-02-10 22:02:00,
2013-02-10 17:07:00,48.3,46.1,29.80,SSE,158,3.0,14.0,92,0.01,,,0.01,VWS V14.01,2013-02-10 22:07:00,
2013-02-10 17:12:00,48.4,46.2,29.81,SW,217,9.0,16.0,92,0.01,,,0.01,VWS V14.01,2013-02-10 22:12:00,
2013-02-10 17:17:00,48.5,46.3,29.82,South,177,5.0,8.0,92,0.01,,,0.01,VWS V14.01,2013-02-10 22:17:00,
2013-02-10 17:22:00,48.6,46.4,29.82,SSW,192,10.0,10.0,92,0.01,,,0.01,VWS V14.01,2013-02-10 22:22:00,
2013-02-10 17:27:00,48.6,46.4,29.83,South,188,7.0,16.0,92,0.00,,,0.01,VWS V14.01,2013-02-10 22:27:00,
2013-02-10 17:33:00,48.7,46.5,29.83,SSW,207,4.0,7.0,92,0.00,,,0.01,VWS V14.01,2013-02-10 22:33:00,
2013-02-10 17:38:00,48.8,46.6,29.83,SW,219,9.0,14.0,92,0.00,,,0.01,VWS V14.01,2013-02-10 22:38:00,
2013-02-10 17:43:00,48.9,46.7,29.83,South,184,3.0,6.0,92,0.00,,,0.01,VWS V14.01,2013-02-10 22:43:00,
2013-02-10 17:48:00,49.0,46.8,29.83,South,178,6.0,7.0,92,0.00,,,0.01,VWS V14.01,2013-02-10 22:48:00,
2013-02-10 17:53:00,49.0,46.8,29.84,SE,146,3.0,10.0,92,0.00,,,0.01,VWS V14.01,2013-02-10 22:53:00,
2013-02-10 17:58:00,49.2,46.7,29.83,South,176,6.0,6.0,91,0.00,,,0.01,VWS V14.01,2013-02-10 22:58:00,
2013-02-10 18:03:00,49.2,46.7,29.83,South,190,7.0,12.0,91,0.00,,,0.01,VWS V14.01,2013-02-10 23:03:00,
2013-02-10 18:08:00,49.2,46.7,29.83,South,176,3.0,15.0,91,0.00,,,0.01,VWS V14.01,2013-02-10 23:08:00,
2013-02-10 18:13:00,49.2,46.7,29.83,South,171,11.0,11.0,91,0.00,,,0.01,VWS V14.01,2013-02-10 23:13:00,
2013-02-10 18:18:00,49.2,46.7,29.83,SSE,155,4.0,6.0,91,0.00,,,0.01,VWS V14.01,2013-02-10 23:18:00,
2013-02-10 18:23:00,49.3,46.8,29.83,South,190,14.0,14.0,91,0.00,,,0.01,VWS V14.01,2013-02-10 23:23:00,
2013-02-10 18:28:00,49.3,46.8,29.84,South,188,6.0,6.0,91,0.00,,,0.01,VWS V14.01,2013-02-10 23:28:00,
2013-02-10 18:33:00,49.3,46.8,29.82,SSW,194,6.0,11.0,91,0.00,,,0.01,VWS V14.01,2013-02-10 23:33:00,
2013-02-10 18:38:00,49.4,46.9,29.82,SSW,202,5.0,10.0,91,0.00,,,0.01,VWS V14.01,2013-02-10 23:38:00,
2013-02-10 18:43:00,49.5,47.0,29.82,SSE,168,11.0,13.0,91,0.00,,,0.01,VWS V14.01,2013-02-10 23:43:00,
2013-02-10 18:48:00,49.6,47.1,29.82,SSE,167,4.0,6.0,91,0.00,,,0.01,VWS V14.01,2013-02-10 23:48:00,
2013-02-10 18:53:00,49.6,47.1,29.82,South,188,5.0,10.0,91,0.00,,,0.01,VWS V14.01,2013-02-10 23:53:00,
2013-02-10 18:58:00,49.7,47.2,29.81,SSE,150,4.0,9.0,91,0.00,,,0.01,VWS V14.01,2013-02-10 23:58:00,
2013-02-10 19:03:00,49.8,47.3,29.82,SE,129,9.0,9.0,91,0.00,,,0.01,VWS V14.01,2013-02-11 00:03:00,
2013-02-10 19:08:00,49.9,47.4,29.82,SSE,156,5.0,6.0,91,0.00,,,0.01,VWS V14.01,2013-02-11 00:08:00,
2013-02-10 19:13:00,50.0,47.5,29.82,SSW,196,10.0,10.0,91,0.00,,,0.01,VWS V14.01,2013-02-11 00:13:00,
2013-02-10 19:18:00,50.1,47.6,29.82,South,186,10.0,12.0,91,0.00,,,0.01,VWS V14.01,2013-02-11 00:18:00,
2013-02-10 19:23:00,50.1,47.6,29.81,SE,140,3.0,9.0,91,0.00,,,0.01,VWS V14.01,2013-02-11 00:23:00,
2013-02-10 19:28:00,50.1,47.6,29.80,SSW,207,10.0,13.0,91,0.00,,,0.01,VWS V14.01,2013-02-11 00:28:00,
2013-02-10 19:33:00,50.3,47.8,29.79,South,181,7.0,7.0,91,0.00,,,0.01,VWS V14.01,2013-02-11 00:33:00,
2013-02-10 19:38:00,50.4,47.9,29.80,South,181,4.0,6.0,91,0.00,,,0.01,VWS V14.01,2013-02-11 00:38:00,
2013-02-10 19:43:00,50.4,47.9,29.79,SSE,147,5.0,6.0,91,0.00,,,0.01,VWS V14.01,2013-02-11 00:43:00,
2013-02-10 19:48:00,50.6,48.1,29.78,South,186,11.0,11.0,91,0.00,,,0.01,VWS V14.01,2013-02-11 00:48:00,
2013-02-10 19:54:00,50.7,48.2,29.78,South,173,4.0,6.0,91,0.00,,,0.01,VWS V14.01,2013-02-11 00:54:00,
2013-02-10 19:59:00,50.8,48.3,29.79,SSW,203,10.0,10.0,91,0.00,,,0.01,VWS V14.01,2013-02-11 00:59:00,
2013-02-10 20:04:00,51.0,48.2,29.80,SSW,194,3.0,11.0,90,0.00,,,0.01,VWS V14.01,2013-02-11 01:04:00,
2013-02-10 20:09:00,51.0,48.5,29.79,South,178,4.0,13.0,91,0.00,,,0.01,VWS V14.01,2013-02-11 01:09:00,
2013-02-10 20:14:00,51.0,48.2,29.80,South,186,2.0,4.0,90,0.00,,,0.01,VWS V14.01,2013-02-11 01:14:00,
2013-02-10 20:19:00,50.9,48.4,29.79,SSW,203,3.0,9.0,91,0.00,,,0.01,VWS V14.01,2013-02-11 01:19:00,
2013-02-10 20:24:00,50.9,48.4,29.80,SSE,161,5.0,9.0,91,0.00,,,0.01,VWS V14.01,2013-02-11 01:24:00,
2013-02-10 20:29:00,50.9,48.4,29.79,SSE,164,5.0,11.0,91,0.00,,,0.01,VWS V14.01,2013-02-11 01:29:00,
2013-02-10 20:34:00,50.9,48.4,29.79,SSE,168,3.0,6.0,91,0.00,,,0.01,VWS V14.01,2013-02-11 01:34:00,
2013-02-10 20:39:00,51.0,48.5,29.80,SSE,165,3.0,6.0,91,0.00,,,0.01,VWS V14.01,2013-02-11 01:39:00,
2013-02-10 20:44:00,50.9,48.4,29.80,SW,218,6.0,7.0,91,0.00,,,0.01,VWS V14.01,2013-02-11 01:44:00,
2013-02-10 20:49:00,51.0,48.5,29.81,South,183,4.0,5.0,91,0.00,,,0.01,VWS V14.01,2013-02-11 01:49:00,
2013-02-10 20:54:00,51.0,48.5,29.81,SSW,205,10.0,13.0,91,0.00,,,0.01,VWS V14.01,2013-02-11 01:54:00,
2013-02-10 20:59:00,51.0,48.5,29.81,South,171,0.0,1.0,91,0.00,,,0.01,VWS V14.01,2013-02-11 01:59:00,
2013-02-10 21:04:00,51.1,48.6,29.80,South,169,4.0,6.0,91,0.00,,,0.01,VWS V14.01,2013-02-11 02:04:00,
2013-02-10 21:09:00,51.3,48.8,29.81,SSE,150,3.0,7.0,91,0.00,,,0.01,VWS V14.01,2013-02-11 02:09:00,
2013-02-10 21:14:00,51.4,48.9,29.81,South,173,2.0,5.0,91,0.00,,,0.01,VWS V14.01,2013-02-11 02:14:00,
2013-02-10 21:19:00,51.5,49.3,29.81,South,173,3.0,5.0,92,0.00,,,0.01,VWS V14.01,2013-02-11 02:19:00,
2013-02-10 21:24:00,51.6,49.4,29.81,WSW,244,1.0,3.0,92,0.00,,,0.01,VWS V14.01,2013-02-11 02:24:00,
2013-02-10 21:29:00,51.8,49.5,29.82,SSW,205,2.0,3.0,92,0.00,,,0.01,VWS V14.01,2013-02-11 02:29:00,
2013-02-10 21:34:00,52.0,49.5,29.81,South,183,4.0,6.0,91,0.00,,,0.01,VWS V14.01,2013-02-11 02:34:00,
2013-02-10 21:39:00,52.1,49.6,29.81,South,183,4.0,6.0,91,0.00,,,0.01,VWS V14.01,2013-02-11 02:39:00,
2013-02-10 21:44:00,52.2,50.0,29.81,SSW,199,2.0,5.0,92,0.00,,,0.01,VWS V14.01,2013-02-11 02:44:00,
2013-02-10 21:49:00,52.4,50.2,29.81,South,173,5.0,7.0,92,0.00,,,0.01,VWS V14.01,2013-02-11 02:49:00,
2013-02-10 21:54:00,52.4,50.2,29.81,SSW,207,6.0,12.0,92,0.00,,,0.01,VWS V14.01,2013-02-11 02:54:00,
2013-02-10 21:59:00,52.2,50.2,29.81,SSW,199,1.0,2.0,93,0.00,,,0.01,VWS V14.01,2013-02-11 02:59:00,
2013-02-10 22:04:00,52.0,50.0,29.80,SSE,155,4.0,4.0,93,0.00,,,0.01,VWS V14.01,2013-02-11 03:04:00,
2013-02-10 22:09:00,51.9,50.2,29.80,South,186,6.0,10.0,94,0.00,,,0.01,VWS V14.01,2013-02-11 03:09:00,
2013-02-10 22:14:00,51.7,50.3,29.80,SSW,198,6.0,7.0,95,0.00,,,0.01,VWS V14.01,2013-02-11 03:14:00,
2013-02-10 22:19:00,51.7,50.3,29.80,SW,222,3.0,7.0,95,0.00,,,0.01,VWS V14.01,2013-02-11 03:19:00,
2013-02-10 22:24:00,51.6,50.5,29.80,SSW,204,1.0,4.0,96,0.00,,,0.01,VWS V14.01,2013-02-11 03:24:00,
2013-02-10 22:29:00,51.5,50.4,29.80,SSW,192,4.0,5.0,96,0.00,,,0.01,VWS V14.01,2013-02-11 03:29:00,
2013-02-10 22:34:00,51.5,50.4,29.80,SSW,209,5.0,5.0,96,0.00,,,0.01,VWS V14.01,2013-02-11 03:34:00,
2013-02-10 22:39:00,51.5,50.4,29.80,SSW,195,4.0,7.0,96,0.00,,,0.01,VWS V14.01,2013-02-11 03:39:00,
2013-02-10 22:44:00,51.5,50.4,29.80,South,188,3.0,5.0,96,0.00,,,0.01,VWS V14.01,2013-02-11 03:44:00,
2013-02-10 22:49:00,51.5,50.4,29.80,SSW,207,4.0,5.0,96,0.00,,,0.01,VWS V14.01,2013-02-11 03:49:00,
2013-02-10 22:54:00,51.5,50.4,29.81,SSW,210,5.0,10.0,96,0.00,,,0.01,VWS V14.01,2013-02-11 03:54:00,
2013-02-10 23:00:00,51.6,50.8,29.80,South,189,5.0,6.0,97,0.00,,,0.01,VWS V14.01,2013-02-11 04:00:00,
2013-02-10 23:05:00,51.6,50.8,29.80,SSW,195,3.0,4.0,97,0.00,,,0.01,VWS V14.01,2013-02-11 04:05:00,
2013-02-10 23:10:00,51.7,50.9,29.80,SSW,209,2.0,4.0,97,0.00,,,0.01,VWS V14.01,2013-02-11 04:10:00,
2013-02-10 23:15:00,51.8,51.0,29.81,South,175,5.0,10.0,97,0.00,,,0.01,VWS V14.01,2013-02-11 04:15:00,
2013-02-10 23:20:00,51.8,51.0,29.81,South,189,3.0,3.0,97,0.00,,,0.01,VWS V14.01,2013-02-11 04:20:00,
2013-02-10 23:25:00,51.9,51.1,29.81,SSW,202,7.0,9.0,97,0.00,,,0.01,VWS V14.01,2013-02-11 04:25:00,
2013-02-10 23:30:00,52.0,51.2,29.80,SW,216,4.0,7.0,97,0.00,,,0.01,VWS V14.01,2013-02-11 04:30:00,
2013-02-10 23:35:00,52.1,51.3,29.81,SSW,213,3.0,4.0,97,0.00,,,0.01,VWS V14.01,2013-02-11 04:35:00,
2013-02-10 23:40:00,52.2,51.7,29.80,SSW,200,11.0,11.0,98,0.00,,,0.01,VWS V14.01,2013-02-11 04:40:00,
2013-02-10 23:45:00,52.3,51.8,29.80,WSW,254,9.0,11.0,98,0.00,,,0.01,VWS V14.01,2013-02-11 04:45:00,
2013-02-10 23:50:00,52.4,51.8,29.81,SW,221,6.0,6.0,98,0.00,,,0.01,VWS V14.01,2013-02-11 04:50:00,
2013-02-10 23:55:00,52.4,51.8,29.80,SW,216,7.0,9.0,98,0.00,,,0.01,VWS V14.01,2013-02-11 04:55:00,